Location: Kailua
(21.4020°N, 157.7390°W)
Time: 20:49:34
(UTC-10:00)

Cosmos 2297 Rocket - Visible Passes

Search period start: 29 May 2016 00:00
Search period end: 08 June 2016 00:00
Orbit: 839 x 844 km, 71.0° (Epoch: 28 May)

Date Brightness Start Highest point End Pass type
(mag) Time Alt. Az. Time Alt. Az. Time Alt. Az.
29 May 2.1 04:40:37 14° SSW 04:45:28 78° WNW 04:51:08 10° NNE visible
30 May 2.1 04:26:35 22° SSW 04:30:23 83° WNW 04:36:04 10° NNE visible
31 May 2.1 04:12:28 31° SSW 04:15:18 89° WNW 04:20:59 10° NNE visible
01 Jun 2.1 03:58:19 44° SSW 04:00:14 86° ESE 04:05:54 10° NNE visible
02 Jun 2.1 03:44:04 59° S 03:45:09 81° ESE 03:50:49 10° NNE visible
03 Jun 2.1 03:29:46 73° SE 03:30:05 76° ESE 03:35:44 10° NNE visible
04 Jun 2.4 03:15:25 68° ENE 03:15:25 68° ENE 03:20:38 10° NNE visible
05 Jun 2.8 03:01:00 54° NE 03:01:00 54° NE 03:05:32 10° NNE visible
05 Jun 4.2 04:43:15 10° WNW 04:44:15 10° WNW 04:45:15 10° NW visible
06 Jun 3.2 02:46:33 43° NE 02:46:33 43° NE 02:50:26 10° NNE visible
06 Jun 4.2 04:28:22 11° WNW 04:29:08 11° WNW 04:30:52 10° NW visible
07 Jun 3.6 02:32:03 34° NE 02:32:03 34° NE 02:35:19 10° NNE visible
07 Jun 4.2 04:13:52 12° WNW 04:14:01 12° WNW 04:16:13 10° NW visible
